JM1YTT-13 Weather Reports


Display with metric or nautical units.
time (UTC)temp
F
wind
direction
speed
MPH
gust
MPH
rain 1hr
in
rain 24hr
in
rain mn
in
humidity
%
barometer
mb
20260509031310 72 9 2.0 17.0 0.00 0.00 0.00 35 1009.7
20260509024310 71 336 1.0 2.0 0.00 0.00 0.00 38 1009.5
20260509021310 70 337 4.0 6.0 0.00 0.00 0.00 37 1009.2
20260509014310 71 335 3.0 19.0 0.00 0.00 0.00 41 1009.3
20260509011310 69 341 0.0 2.0 0.00 0.00 0.00 39 1009.2
20260509004310 70 2 1.0 4.0 0.00 0.00 0.00 37 1008.7
20260509001310 71 347 0.0 4.0 0.00 0.00 0.00 37 1008.0
20260508234310 70 338 1.0 4.0 0.00 0.00 0.00 38 1008.0
20260508231310 69 5 0.0 0.0 0.00 0.00 0.00 53 1007.5
20260508224310 67 158 0.0 2.0 0.00 0.00 0.00 62 1007.1
20260508221310 63 163 0.0 0.0 0.00 0.00 0.00 82 1006.8
20260508214310 60 178 0.0 0.0 0.00 0.00 0.00 85 1006.2
20260508211310 58 315 0.0 0.0 0.00 0.00 0.00 68 1004.1
20260508204310 58 315 0.0 0.0 0.00 0.00 0.00 68 1004.1
20260508201310 58 315 0.0 0.0 0.00 0.00 0.00 68 1004.1
20260508194310 58 315 0.0 0.0 0.00 0.00 0.00 68 1004.1
20260508191310 58 296 0.0 0.0 0.00 0.00 0.00 88 1003.9
20260508184310 60 296 0.0 0.0 0.00 0.00 0.00 86 1003.6
20260508181310 61 296 0.0 0.0 0.00 0.00 0.00 86 1003.4
20260508174310 62 295 0.0 0.0 0.00 0.00 0.00 85 1003.0
20260508171310 62 189 0.0 2.0 0.00 0.00 0.00 84 1002.4
20260508164310 64 5 0.0 0.0 0.00 0.00 0.00 79 1002.2
20260508161310 67 348 0.0 0.0 0.00 0.00 0.00 79 1001.5
20260508154310 67 242 0.0 4.0 0.00 0.00 0.00 78 1001.3
20260508151310 67 261 1.0 6.0 0.00 0.00 0.00 79 1000.9
20260508144310 68 335 2.0 12.0 0.00 0.00 0.00 76 1001.0
20260508141310 69 172 1.0 8.0 0.00 0.00 0.00 73 1000.5
20260508134310 70 261 3.0 16.0 0.00 0.00 0.00 70 1000.2
20260508131310 71 263 2.0 10.0 0.00 0.00 0.00 68 1000.0
20260508124310 71 304 2.0 10.0 0.00 0.00 0.00 70 999.8
20260508121310 71 254 3.0 6.0 0.00 0.00 0.00 72 999.6
20260508114310 71 221 5.0 16.0 0.00 0.00 0.00 76 999.4
20260508111310 71 58 6.0 14.0 0.00 0.00 0.00 79 999.1
20260508104310 71 237 7.0 16.0 0.00 0.00 0.00 80 999.4
20260508101310 71 177 9.0 19.0 0.00 0.00 0.00 79 999.6
20260508094310 72 312 3.0 6.0 0.00 0.00 0.00 76 999.6
20260508091310 72 244 7.0 16.0 0.00 0.00 0.00 74 999.6
20260508084310 72 224 7.0 21.0 0.00 0.00 0.00 71 999.9
20260508081310 74 272 5.0 14.0 0.00 0.00 0.00 68 1000.2
20260508074310 76 322 4.0 14.0 0.00 0.00 0.00 69 1000.1
20260508071310 78 250 4.0 10.0 0.00 0.00 0.00 67 1000.2
20260508064310 79 312 2.0 8.0 0.00 0.00 0.00 67 1000.7
20260508061310 77 239 3.0 10.0 0.00 0.00 0.00 69 1000.7
20260508054310 78 296 2.0 10.0 0.00 0.00 0.00 68 1001.5
20260508051310 79 338 2.0 6.0 0.00 0.00 0.00 69 1001.6
20260508044310 78 251 6.0 14.0 0.00 0.00 0.00 70 1002.4
20260508041310 80 341 5.0 10.0 0.00 0.00 0.00 67 1002.6
20260508034310 79 256 2.0 6.0 0.00 0.00 0.00 70 1003.1